,,Stat1,,Stat2,,Stat3,,Stat4,,Wind1,,Wind1,
time,status,PR1M_SUM,status,RH1M_AVG,status,SR1M_AVG,status,TA1M_AVG,status,W1dAve1m,status,W1sAve1m,
1999-08-19, 00:00:00,VALID,0,VALID,95.0817,VALID,-0.0509425,VALID,20.9538,VALID,85,VALID,0.407335,
1999-08-19, 00:01:00,VALID,0,VALID,95.2457,VALID,-0.0339617,VALID,20.9581,VALID,94,VALID,0.348242,
1999-08-19, 00:02:00,VALID,0,VALID,95.3055,VALID,-0.0169808,VALID,20.9742,VALID,102,VALID,0.349095,
1999-08-19, 00:03:00,VALID,0,VALID,95.1783,VALID,-0.0339617,VALID,20.9834,VALID,127,VALID,0.501524,
1999-08-19, 00:04:00,VALID,0,VALID,95.0117,VALID,-0.0169808,VALID,20.9667,VALID,115,VALID,0.688117,
1999-08-19, 00:05:00,VALID,0,VALID,95.0385,VALID,-0.0509425,VALID,20.9645,VALID,111,VALID,0.66226,
1999-08-19, 00:06:00,VALID,0,VALID,95.0283,VALID,-0.0339617,VALID,20.9247,VALID,108,VALID,0.506579,
1999-08-19, 00:07:00,VALID,0,VALID,95.1682,VALID,0,VALID,20.8994,VALID,109,VALID,0.431949,
1999-08-19, 00:08:00,VALID,0,VALID,95.4873,VALID,-0.0509425,VALID,20.8735,VALID,94,VALID,0.480363,
1999-08-19, 00:09:00,VALID,0,VALID,95.631,VALID,0,VALID,20.8633,VALID,72,VALID,0.560938,
1999-08-19, 00:10:01,VALID,0,VALID,95.4924,VALID,0,VALID,20.8668,VALID,66,VALID,0.476758,
1999-08-19, 00:11:00,VALID,0,VALID,95.5776,VALID,-0.0509425,VALID,20.8315,VALID,87,VALID,0.321135,
1999-08-19, 00:12:00,VALID,0,VALID,95.7963,VALID,-0.0169808,VALID,20.8477,VALID,102,VALID,0.236909,
1999-08-19, 00:13:00,VALID,0,VALID,95.851,VALID,-0.0339617,VALID,20.8544,VALID,102,VALID,0.308594,
1999-08-19, 00:14:00,VALID,0,VALID,95.8637,VALID,-0.0339617,VALID,20.8899,VALID,98,VALID,0.468544,
1999-08-19, 00:15:00,VALID,0,VALID,95.7633,VALID,-0.0169808,VALID,20.9182,VALID,107,VALID,0.480755,
1999-08-19, 00:16:00,VALID,0,VALID,95.5916,VALID,0,VALID,20.9446,VALID,104,VALID,0.594367,
1999-08-19, 00:17:00,VALID,0,VALID,95.5229,VALID,-0.0169808,VALID,20.9637,VALID,104,VALID,0.626803,
1999-08-19, 00:18:00,VALID,0,VALID,95.4454,VALID,0,VALID,20.9667,VALID,103,VALID,0.828331,
1999-08-19, 00:19:00,VALID,0,VALID,95.4021,VALID,0,VALID,20.9864,VALID,104,VALID,0.78125,
1999-08-19, 00:20:00,VALID,0,VALID,95.3932,VALID,0,VALID,20.9699,VALID,100,VALID,0.771959,
1999-08-19, 00:21:00,VALID,0,VALID,95.3843,VALID,0,VALID,20.957,VALID,100,VALID,0.662109,
1999-08-19, 00:22:00,VALID,0,VALID,95.4644,VALID,-0.0169808,VALID,20.9476,VALID,100,VALID,0.778516,
1999-08-19, 00:23:00,VALID,0,VALID,95.4899,VALID,0.0169808,VALID,20.9306,VALID,100,VALID,0.454359,
1999-08-19, 00:24:00,VALID,0,VALID,95.4962,VALID,0,VALID,20.9312,VALID,101,VALID,0.195524,
1999-08-19, 00:25:00,VALID,0,VALID,95.3958,VALID,0,VALID,20.9155,VALID,101,VALID,0.0814145,
1999-08-19, 00:26:00,VALID,0,VALID,95.4924,VALID,0,VALID,20.876,VALID,108,VALID,0.39926,
1999-08-19, 00:27:00,VALID,0,VALID,95.5395,VALID,0,VALID,20.8601,VALID,115,VALID,0.548209,
1999-08-19, 00:28:00,VALID,0,VALID,95.5662,VALID,0,VALID,20.8643,VALID,103,VALID,0.37315,
1999-08-19, 00:29:00,VALID,0,VALID,95.5954,VALID,-0.0169808,VALID,20.8509,VALID,105,VALID,0.465144,
1999-08-19, 00:30:00,VALID,0,VALID,95.4136,VALID,0,VALID,20.8091,VALID,107,VALID,0.361637,
1999-08-19, 00:31:00,VALID,0,VALID,95.6666,VALID,0,VALID,20.7628,VALID,109,VALID,0.311266,
1999-08-19, 00:32:00,VALID,0,VALID,95.8523,VALID,-0.0339617,VALID,20.7639,VALID,110,VALID,0.212204,
1999-08-19, 00:33:00,VALID,0,VALID,95.9095,VALID,0,VALID,20.7599,VALID,128,VALID,0,
1999-08-19, 00:34:00,VALID,0,VALID,95.9451,VALID,0,VALID,20.7636,VALID,162,VALID,0,
1999-08-19, 00:35:00,VALID,0,VALID,95.8612,VALID,0,VALID,20.7572,VALID,167,VALID,0,
1999-08-19, 00:36:00,VALID,0,VALID,95.7709,VALID,0,VALID,20.738,VALID,191,VALID,0,
1999-08-19, 00:37:00,VALID,0,VALID,95.8548,VALID,-0.0169808,VALID,20.7221,VALID,240,VALID,0,
1999-08-19, 00:38:00,VALID,0,VALID,96.0545,VALID,-0.0509425,VALID,20.696,VALID,268,VALID,0,
1999-08-19, 00:39:00,VALID,0,VALID,96.0278,VALID,-0.0169808,VALID,20.6639,VALID,279,VALID,0.528011,
1999-08-19, 00:40:00,VALID,0,VALID,96.1219,VALID,-0.0339617,VALID,20.6122,VALID,272,VALID,0.445724,
1999-08-19, 00:41:00,VALID,0,VALID,96.2821,VALID,0,VALID,20.5834,VALID,274,VALID,0.286058,
1999-08-19, 00:42:00,VALID,0,VALID,96.4296,VALID,0,VALID,20.5573,VALID,271,VALID,0.0291941,
1999-08-19, 00:43:00,VALID,0,VALID,96.6216,VALID,-0.0339617,VALID,20.5543,VALID,271,VALID,0,
1999-08-19, 00:44:00,VALID,0,VALID,96.7335,VALID,-0.0339617,VALID,20.5473,VALID,158,VALID,0.00126689,
1999-08-19, 00:45:00,VALID,0,VALID,96.5567,VALID,0,VALID,20.525,VALID,113,VALID,0,
1999-08-19, 00:46:00,VALID,0,VALID,96.3787,VALID,0,VALID,20.4822,VALID,113,VALID,0,
1999-08-19, 00:47:00,VALID,0,VALID,96.38,VALID,0,VALID,20.48,VALID,113,VALID,0,
1999-08-19, 00:48:00,VALID,0,VALID,96.5377,VALID,0,VALID,20.4536,VALID,113,VALID,0,
1999-08-19, 00:49:00,VALID,0,VALID,96.6241,VALID,-0.0169808,VALID,20.4603,VALID,118,VALID,0,
1999-08-19, 00:50:00,VALID,0,VALID,96.525,VALID,0,VALID,20.441,VALID,116,VALID,0,
1999-08-19, 00:51:00,VALID,0,VALID,96.6623,VALID,-0.0169808,VALID,20.4275,VALID,107,VALID,0,
1999-08-19, 00:52:00,VALID,0,VALID,96.7538,VALID,-0.0339617,VALID,20.4372,VALID,108,VALID,0,
1999-08-19, 00:53:00,VALID,0,VALID,96.792,VALID,-0.0169808,VALID,20.4342,VALID,108,VALID,0,
1999-08-19, 00:54:01,VALID,0,VALID,96.792,VALID,-0.0169808,VALID,20.4442,VALID,108,VALID,0,
1999-08-19, 00:55:00,VALID,0,VALID,96.7284,VALID,0,VALID,20.4506,VALID,111,VALID,0,
1999-08-19, 00:56:00,VALID,0,VALID,96.5924,VALID,-0.0339617,VALID,20.4547,VALID,132,VALID,0,
1999-08-19, 00:57:00,VALID,0,VALID,96.5644,VALID,-0.0339617,VALID,20.4315,VALID,159,VALID,0,
1999-08-19, 00:58:00,VALID,0,VALID,96.6661,VALID,-0.0169808,VALID,20.4253,VALID,157,VALID,0,
1999-08-19, 00:59:00,VALID,0,VALID,96.7221,VALID,0,VALID,20.4017,VALID,157,VALID,0,
1999-08-19, 01:00:00,VALID,0,VALID,96.7882,VALID,0,VALID,20.4022,VALID,158,VALID,0,
1999-08-19, 01:01:00,VALID,0,VALID,96.8251,VALID,-0.0339617,VALID,20.3925,VALID,137,VALID,0.171053,
1999-08-19, 01:02:00,VALID,0,VALID,96.7856,VALID,-0.0169808,VALID,20.3858,VALID,114,VALID,0.556127,
1999-08-19, 01:03:00,VALID,0,VALID,96.7653,VALID,-0.0339617,VALID,20.393,VALID,118,VALID,0.418826,
1999-08-19, 01:04:00,VALID,0,VALID,96.6089,VALID,0,VALID,20.3736,VALID,119,VALID,0.387541,
1999-08-19, 01:05:01,VALID,0,VALID,96.5593,VALID,-0.0509425,VALID,20.3733,VALID,118,VALID,0.490785,
1999-08-19, 01:06:00,VALID,0,VALID,96.5567,VALID,-0.0169808,VALID,20.3903,VALID,116,VALID,0.353824,
1999-08-19, 01:07:00,VALID,0,VALID,96.5593,VALID,-0.0679233,VALID,20.3838,VALID,111,VALID,0.383018,
1999-08-19, 01:08:00,VALID,0,VALID,96.5161,VALID,-0.0169808,VALID,20.387,VALID,98,VALID,0.488809,
1999-08-19, 01:09:00,VALID,0,VALID,96.5059,VALID,-0.0169808,VALID,20.351,VALID,91,VALID,0.599805,
1999-08-19, 01:10:00,VALID,0,VALID,96.427,VALID,-0.0169808,VALID,20.3281,VALID,83,VALID,0.710156,
1999-08-19, 01:11:00,VALID,0,VALID,96.5161,VALID,-0.0169808,VALID,20.3249,VALID,86,VALID,0.763363,
1999-08-19, 01:12:00,VALID,0,VALID,96.5389,VALID,0.0169808,VALID,20.3313,VALID,90,VALID,0.638514,
1999-08-19, 01:13:00,VALID,0,VALID,96.4627,VALID,-0.0169808,VALID,20.3445,VALID,95,VALID,0.597245,
1999-08-19, 01:14:00,VALID,0,VALID,96.3991,VALID,-0.0509425,VALID,20.3413,VALID,99,VALID,0.571957,
1999-08-19, 01:15:00,VALID,0,VALID,96.483,VALID,-0.0169808,VALID,20.3674,VALID,96,VALID,0.735518,
1999-08-19, 01:16:01,VALID,0,VALID,96.5173,VALID,-0.0339617,VALID,20.3639,VALID,88,VALID,0.497533,
1999-08-19, 01:17:00,VALID,0,VALID,96.5479,VALID,0,VALID,20.3674,VALID,96,VALID,0.482372,
1999-08-19, 01:18:00,VALID,0,VALID,96.5122,VALID,-0.0169808,VALID,20.3701,VALID,100,VALID,0.633635,
1999-08-19, 01:19:00,VALID,0,VALID,96.3647,VALID,0,VALID,20.3572,VALID,93,VALID,0.728413,
1999-08-19, 01:20:00,VALID,0,VALID,96.188,VALID,0,VALID,20.341,VALID,85,VALID,0.949535,
1999-08-19, 01:21:00,VALID,0,VALID,96.1804,VALID,-0.0169808,VALID,20.338,VALID,84,VALID,0.85332,
1999-08-19, 01:22:00,VALID,0,VALID,96.1791,VALID,-0.0509425,VALID,20.3351,VALID,81,VALID,0.857031,
1999-08-19, 01:23:00,VALID,0,VALID,96.0379,VALID,-0.0169808,VALID,20.3316,VALID,69,VALID,0.627467,
1999-08-19, 01:24:00,VALID,0,VALID,96.1066,VALID,-0.0169808,VALID,20.3286,VALID,64,VALID,0.583404,
1999-08-19, 01:25:00,VALID,0,VALID,96.2223,VALID,-0.0169808,VALID,20.3125,VALID,69,VALID,0.646587,
1999-08-19, 01:26:00,VALID,0,VALID,96.221,VALID,-0.0339617,VALID,20.2931,VALID,65,VALID,0.634868,
1999-08-19, 01:27:01,VALID,0,VALID,96.3406,VALID,-0.0509425,VALID,20.264,VALID,72,VALID,0.67702,
1999-08-19, 01:28:00,VALID,0,VALID,96.4538,VALID,-0.0169808,VALID,20.2605,VALID,77,VALID,0.669613,
1999-08-19, 01:29:00,VALID,0,VALID,96.4932,VALID,-0.0169808,VALID,20.2602,VALID,92,VALID,0.773037,
1999-08-19, 01:30:00,VALID,0,VALID,96.5173,VALID,-0.0169808,VALID,20.2637,VALID,74,VALID,0.716283,
1999-08-19, 01:31:00,VALID,0,VALID,96.5479,VALID,0,VALID,20.2538,VALID,70,VALID,1.03742,
1999-08-19, 01:32:00,VALID,0,VALID,96.6051,VALID,-0.0509425,VALID,20.2446,VALID,75,VALID,0.824958,
1999-08-19, 01:33:00,VALID,0,VALID,96.6559,VALID,0,VALID,20.2381,VALID,80,VALID,0.741406,
1999-08-19, 01:34:00,VALID,0,VALID,96.7564,VALID,-0.0169808,VALID,20.2379,VALID,65,VALID,0.682227,
1999-08-19, 01:35:00,VALID,0,VALID,96.8251,VALID,-0.0169808,VALID,20.2379,VALID,106,VALID,0.420436,
1999-08-19, 01:36:00,VALID,0,VALID,96.7449,VALID,-0.0509425,VALID,20.2481,VALID,87,VALID,0.323057,
1999-08-19, 01:37:00,VALID,0,VALID,96.7475,VALID,-0.101885,VALID,20.2476,VALID,80,VALID,0.303865,
1999-08-19, 01:38:01,VALID,0,VALID,96.7424,VALID,-0.0509425,VALID,20.2901,VALID,83,VALID,0.369038,
1999-08-19, 01:39:00,VALID,0,VALID,96.7119,VALID,0,VALID,20.3122,VALID,96,VALID,0.550114,
1999-08-19, 01:40:00,VALID,0,VALID,96.6903,VALID,-0.0339617,VALID,20.3187,VALID,89,VALID,0.792763,
1999-08-19, 01:41:00,VALID,0,VALID,96.6941,VALID,0,VALID,20.3286,VALID,114,VALID,0.459736,
1999-08-19, 01:42:00,VALID,0,VALID,96.6318,VALID,-0.0339617,VALID,20.345,VALID,97,VALID,0.280839,
1999-08-19, 01:43:00,VALID,0,VALID,96.3864,VALID,-0.0509425,VALID,20.3453,VALID,84,VALID,0.356497,
1999-08-19, 01:44:00,VALID,0,VALID,96.4194,VALID,-0.0679233,VALID,20.3353,VALID,109,VALID,0.166385,
1999-08-19, 01:45:00,VALID,0,VALID,96.4283,VALID,-0.0339617,VALID,20.3517,VALID,109,VALID,0.0121094,
1999-08-19, 01:46:00,VALID,0,VALID,96.3393,VALID,-0.0679233,VALID,20.358,VALID,109,VALID,0,
1999-08-19, 01:47:00,VALID,0,VALID,96.2083,VALID,-0.0339617,VALID,20.3811,VALID,109,VALID,0,
1999-08-19, 01:48:00,VALID,0,VALID,96.1053,VALID,-0.0509425,VALID,20.3898,VALID,109,VALID,0,
1999-08-19, 01:49:01,VALID,0,VALID,96.0723,VALID,-0.0169808,VALID,20.4161,VALID,91,VALID,0,
1999-08-19, 01:50:00,VALID,0,VALID,96.0125,VALID,-0.0509425,VALID,20.4263,VALID,75,VALID,0.154811,
1999-08-19, 01:51:00,VALID,0,VALID,95.9286,VALID,-0.0509425,VALID,20.4228,VALID,72,VALID,0.356136,
1999-08-19, 01:52:00,VALID,0,VALID,95.7925,VALID,-0.0679233,VALID,20.4226,VALID,80,VALID,0.210321,
1999-08-19, 01:53:00,VALID,0,VALID,95.6615,VALID,-0.0509425,VALID,20.4291,VALID,77,VALID,0.123397,
1999-08-19, 01:54:00,VALID,0,VALID,95.5395,VALID,-0.0679233,VALID,20.4161,VALID,60,VALID,0.290502,
1999-08-19, 01:55:00,VALID,0,VALID,95.5865,VALID,-0.0679233,VALID,20.3905,VALID,51,VALID,0.22759,
1999-08-19, 01:56:00,VALID,0,VALID,95.7569,VALID,-0.0339617,VALID,20.3671,VALID,51,VALID,0,
1999-08-19, 01:57:00,VALID,0,VALID,95.8866,VALID,0,VALID,20.3507,VALID,51,VALID,0.0304688,
1999-08-19, 01:58:01,VALID,0,VALID,95.9578,VALID,-0.0339617,VALID,20.3647,VALID,49,VALID,0.176367,
1999-08-19, 01:59:00,VALID,0,VALID,96.0367,VALID,-0.0339617,VALID,20.3386,VALID,21,VALID,0,
1999-08-19, 02:00:00,VALID,0,VALID,96.1854,VALID,-0.0169808,VALID,20.3318,VALID,327,VALID,0,
1999-08-19, 02:01:00,VALID,0,VALID,96.2312,VALID,-0.0169808,VALID,20.3418,VALID,279,VALID,0,
1999-08-19, 02:02:00,VALID,0,VALID,96.2541,VALID,-0.0169808,VALID,20.3254,VALID,265,VALID,0,
1999-08-19, 02:03:00,VALID,0,VALID,96.1727,VALID,-0.0339617,VALID,20.3194,VALID,261,VALID,0,
1999-08-19, 02:04:00,VALID,0,VALID,96.0913,VALID,-0.0339617,VALID,20.2866,VALID,260,VALID,0,
1999-08-19, 02:05:00,VALID,0,VALID,96.1651,VALID,-0.0339617,VALID,20.2739,VALID,260,VALID,0,
1999-08-19, 02:06:00,VALID,0,VALID,96.2312,VALID,-0.0169808,VALID,20.2642,VALID,260,VALID,0,
1999-08-19, 02:07:00,VALID,0,VALID,96.3291,VALID,-0.0679233,VALID,20.2647,VALID,260,VALID,0,
1999-08-19, 02:08:00,VALID,0,VALID,96.3113,VALID,-0.0339617,VALID,20.2543,VALID,260,VALID,0,
1999-08-19, 02:09:00,VALID,0,VALID,96.2668,VALID,-0.0169808,VALID,20.2476,VALID,260,VALID,0,
1999-08-19, 02:10:01,VALID,0,VALID,96.1791,VALID,-0.0509425,VALID,20.2481,VALID,260,VALID,0,
1999-08-19, 02:11:00,VALID,0,VALID,96.1791,VALID,-0.0339617,VALID,20.2645,VALID,260,VALID,0,
1999-08-19, 02:12:00,VALID,0,VALID,95.8332,VALID,-0.0169808,VALID,20.251,VALID,260,VALID,0,
1999-08-19, 02:13:00,VALID,0,VALID,95.6437,VALID,-0.0509425,VALID,20.2737,VALID,260,VALID,0,
1999-08-19, 02:14:00,VALID,0,VALID,95.5891,VALID,-0.0339617,VALID,20.2933,VALID,260,VALID,0,
1999-08-19, 02:15:00,VALID,0,VALID,95.6628,VALID,-0.0339617,VALID,20.2995,VALID,260,VALID,0,
1999-08-19, 02:16:00,VALID,0,VALID,95.5878,VALID,-0.0339617,VALID,20.3256,VALID,288,VALID,0,
1999-08-19, 02:17:00,VALID,0,VALID,95.4899,VALID,-0.0169808,VALID,20.3289,VALID,290,VALID,0,
1999-08-19, 02:18:00,VALID,0,VALID,95.4098,VALID,-0.0339617,VALID,20.3199,VALID,290,VALID,0,
1999-08-19, 02:19:00,VALID,0,VALID,95.4136,VALID,-0.0339617,VALID,20.296,VALID,290,VALID,0,
1999-08-19, 02:20:00,VALID,0,VALID,95.3614,VALID,-0.0509425,VALID,20.2806,VALID,290,VALID,0,
1999-08-19, 02:21:00,VALID,0,VALID,95.4555,VALID,-0.0339617,VALID,20.2841,VALID,290,VALID,0,
1999-08-19, 02:22:00,VALID,0,VALID,95.5026,VALID,-0.0509425,VALID,20.2645,VALID,290,VALID,0,
1999-08-19, 02:23:00,VALID,0,VALID,95.5331,VALID,-0.0509425,VALID,20.258,VALID,290,VALID,0,
1999-08-19, 02:24:00,VALID,0,VALID,95.4784,VALID,-0.0679233,VALID,20.2386,VALID,290,VALID,0,
1999-08-19, 02:25:00,VALID,0,VALID,95.4517,VALID,0,VALID,20.2421,VALID,290,VALID,0,
1999-08-19, 02:26:00,VALID,0,VALID,95.5039,VALID,-0.0849042,VALID,20.2098,VALID,250,VALID,0,
1999-08-19, 02:27:00,VALID,0,VALID,95.5204,VALID,-0.101885,VALID,20.1777,VALID,236,VALID,0,
1999-08-19, 02:28:00,VALID,0,VALID,95.6234,VALID,-0.0509425,VALID,20.1484,VALID,236,VALID,0,
1999-08-19, 02:29:00,VALID,0,VALID,95.7404,VALID,-0.0679233,VALID,20.1258,VALID,236,VALID,0,
1999-08-19, 02:30:00,VALID,0,VALID,95.7951,VALID,-0.0509425,VALID,20.1002,VALID,234,VALID,0,
1999-08-19, 02:31:00,VALID,0,VALID,95.8853,VALID,-0.0339617,VALID,20.0676,VALID,207,VALID,0,
1999-08-19, 02:32:00,VALID,0,VALID,95.9871,VALID,-0.0679233,VALID,20.0383,VALID,183,VALID,0,
1999-08-19, 02:33:00,VALID,0,VALID,96.029,VALID,0,VALID,19.9965,VALID,174,VALID,0,
1999-08-19, 02:34:00,VALID,0,VALID,96.2376,VALID,-0.0339617,VALID,19.9712,VALID,168,VALID,0.0386719,
1999-08-19, 02:35:00,VALID,0,VALID,96.3266,VALID,-0.0339617,VALID,19.9247,VALID,144,VALID,0.422903,
1999-08-19, 02:36:00,VALID,0,VALID,96.2096,VALID,-0.0509425,VALID,19.9157,VALID,137,VALID,0.0954392,
1999-08-19, 02:37:00,VALID,0,VALID,96.0913,VALID,-0.0849042,VALID,19.8864,VALID,137,VALID,0.182155,
1999-08-19, 02:38:00,VALID,0,VALID,96.1117,VALID,-0.0339617,VALID,19.8804,VALID,138,VALID,0.155839,
1999-08-19, 02:39:00,VALID,0,VALID,96.0964,VALID,-0.0509425,VALID,19.8543,VALID,146,VALID,0,
1999-08-19, 02:40:00,VALID,0,VALID,96.2249,VALID,-0.0339617,VALID,19.8317,VALID,157,VALID,0,
1999-08-19, 02:41:00,VALID,0,VALID,96.394,VALID,-0.0679233,VALID,19.8026,VALID,159,VALID,0,
1999-08-19, 02:42:00,VALID,0,VALID,96.5072,VALID,-0.0339617,VALID,19.7964,VALID,159,VALID,0,
1999-08-19, 02:43:00,VALID,0,VALID,96.5962,VALID,-0.0339617,VALID,19.7867,VALID,159,VALID,0,
1999-08-19, 02:44:00,VALID,0,VALID,96.5949,VALID,-0.0339617,VALID,19.7835,VALID,159,VALID,0,
1999-08-19, 02:45:00,VALID,0,VALID,96.5771,VALID,-0.0509425,VALID,19.7867,VALID,159,VALID,0,
1999-08-19, 02:46:00,VALID,0,VALID,96.5428,VALID,-0.101885,VALID,19.7805,VALID,159,VALID,0,
1999-08-19, 02:47:00,VALID,0,VALID,96.4792,VALID,-0.0509425,VALID,19.7934,VALID,159,VALID,0,
1999-08-19, 02:48:00,VALID,0,VALID,96.4639,VALID,-0.0679233,VALID,19.7735,VALID,159,VALID,0,
1999-08-19, 02:49:00,VALID,0,VALID,96.4436,VALID,-0.0679233,VALID,19.7673,VALID,159,VALID,0,
1999-08-19, 02:50:00,VALID,0,VALID,96.3851,VALID,-0.0339617,VALID,19.7385,VALID,159,VALID,0,
1999-08-19, 02:51:00,VALID,0,VALID,96.3431,VALID,-0.0849042,VALID,19.7223,VALID,159,VALID,0,
1999-08-19, 02:52:00,VALID,0,VALID,96.2719,VALID,-0.0679233,VALID,19.7024,VALID,159,VALID,0,
1999-08-19, 02:53:00,VALID,0,VALID,96.3088,VALID,-0.101885,VALID,19.6903,VALID,159,VALID,0,
1999-08-19, 02:54:00,VALID,0,VALID,96.4156,VALID,-0.0509425,VALID,19.6771,VALID,159,VALID,0,
1999-08-19, 02:55:00,VALID,0,VALID,96.4741,VALID,-0.0679233,VALID,19.6644,VALID,159,VALID,0,
1999-08-19, 02:56:00,VALID,0,VALID,96.5389,VALID,-0.0509425,VALID,19.651,VALID,159,VALID,0,
1999-08-19, 02:57:00,VALID,0,VALID,96.5974,VALID,-0.0509425,VALID,19.6609,VALID,159,VALID,0,
1999-08-19, 02:58:00,VALID,0,VALID,96.6089,VALID,-0.0679233,VALID,19.6545,VALID,159,VALID,0,
1999-08-19, 02:59:00,VALID,0,VALID,96.6572,VALID,-0.0679233,VALID,19.6443,VALID,159,VALID,0,
1999-08-19, 03:00:00,VALID,0,VALID,96.675,VALID,-0.0339617,VALID,19.6478,VALID,159,VALID,0,
1999-08-19, 03:01:00,VALID,0,VALID,96.5784,VALID,0,VALID,19.647,VALID,159,VALID,0,
1999-08-19, 03:02:00,VALID,0,VALID,96.4576,VALID,0.0509425,VALID,19.6172,VALID,182,VALID,0,
1999-08-19, 03:03:00,VALID,0,VALID,96.2388,VALID,0.0339617,VALID,19.5983,VALID,206,VALID,0,
1999-08-19, 03:04:00,VALID,0,VALID,96.2783,VALID,0.0169808,VALID,19.5655,VALID,206,VALID,0,
1999-08-19, 03:05:00,VALID,0,VALID,96.4359,VALID,0.0679233,VALID,19.5337,VALID,216,VALID,0,
1999-08-19, 03:06:00,VALID,0,VALID,96.6076,VALID,0.0849042,VALID,19.5108,VALID,228,VALID,0,
1999-08-19, 03:07:00,VALID,0,VALID,96.6483,VALID,0.0339617,VALID,19.4882,VALID,228,VALID,0,
1999-08-19, 03:08:00,VALID,0,VALID,96.7437,VALID,0.0509425,VALID,19.4554,VALID,226,VALID,0,
1999-08-19, 03:09:00,VALID,0,VALID,96.7551,VALID,0.0849042,VALID,19.4328,VALID,204,VALID,0,
1999-08-19, 03:10:00,VALID,0,VALID,96.7831,VALID,0.0509425,VALID,19.4077,VALID,186,VALID,0,
1999-08-19, 03:11:00,VALID,0,VALID,96.8772,VALID,0.0169808,VALID,19.3786,VALID,184,VALID,0,
1999-08-19, 03:12:00,VALID,0,VALID,97.0412,VALID,0.0169808,VALID,19.353,VALID,182,VALID,0,
1999-08-19, 03:13:00,VALID,0,VALID,97.204,VALID,-0.0339617,VALID,19.3482,VALID,187,VALID,0,
1999-08-19, 03:14:00,VALID,0,VALID,97.3528,VALID,-0.0509425,VALID,19.3316,VALID,197,VALID,0.196957,
1999-08-19, 03:15:00,VALID,0,VALID,97.4253,VALID,-0.0509425,VALID,19.3254,VALID,207,VALID,0.384718,
1999-08-19, 03:16:00,VALID,0,VALID,97.3718,VALID,-0.0509425,VALID,19.3224,VALID,207,VALID,0.307155,
1999-08-19, 03:17:00,VALID,0,VALID,97.2599,VALID,-0.0849042,VALID,19.3062,VALID,197,VALID,0.447115,
1999-08-19, 03:18:00,VALID,0,VALID,97.1989,VALID,-0.0849042,VALID,19.2737,VALID,197,VALID,0.552632,
1999-08-19, 03:19:00,VALID,0,VALID,97.4253,VALID,-0.0509425,VALID,19.2702,VALID,202,VALID,0.707854,
1999-08-19, 03:20:00,VALID,0,VALID,97.7152,VALID,-0.0509425,VALID,19.3028,VALID,201,VALID,0.551731,
1999-08-19, 03:21:00,VALID,0,VALID,97.8652,VALID,-0.0679233,VALID,19.3289,VALID,209,VALID,0.561328,
1999-08-19, 03:22:00,VALID,0,VALID,97.9008,VALID,-0.0849042,VALID,19.3582,VALID,220,VALID,0.468359,
1999-08-19, 03:23:00,VALID,0,VALID,97.8792,VALID,-0.101885,VALID,19.4004,VALID,209,VALID,0.436266,
1999-08-19, 03:24:00,VALID,0,VALID,97.8741,VALID,-0.0679233,VALID,19.4029,VALID,225,VALID,0.337627,
1999-08-19, 03:25:00,VALID,0,VALID,97.8563,VALID,-0.0849042,VALID,19.4357,VALID,221,VALID,0.20991,
1999-08-19, 03:26:00,VALID,0,VALID,97.7788,VALID,-0.101885,VALID,19.4422,VALID,216,VALID,0.265419,
1999-08-19, 03:27:00,VALID,0,VALID,97.41,VALID,-0.101885,VALID,19.4129,VALID,204,VALID,0.221799,
1999-08-19, 03:28:00,VALID,0,VALID,97.3006,VALID,-0.118866,VALID,19.3972,VALID,202,VALID,0.382196,
1999-08-19, 03:29:00,VALID,0,VALID,97.5956,VALID,-0.0849042,VALID,19.4196,VALID,201,VALID,0.32512,
1999-08-19, 03:30:00,VALID,0,VALID,97.9441,VALID,-0.0849042,VALID,19.4554,VALID,201,VALID,0.239309,
1999-08-19, 03:31:00,VALID,0,VALID,98.0305,VALID,-0.0169808,VALID,19.4668,VALID,201,VALID,0,
1999-08-19, 03:32:00,VALID,0,VALID,97.6478,VALID,0,VALID,19.3923,VALID,196,VALID,0,
1999-08-19, 03:33:00,VALID,0,VALID,97.4532,VALID,0,VALID,19.3761,VALID,196,VALID,0,
1999-08-19, 03:34:00,VALID,0,VALID,97.4977,VALID,0,VALID,19.3888,VALID,196,VALID,0,
1999-08-19, 03:35:00,VALID,0,VALID,97.616,VALID,0,VALID,19.4084,VALID,196,VALID,0,
1999-08-19, 03:36:00,VALID,0,VALID,97.7152,VALID,0,VALID,19.4216,VALID,196,VALID,0,
1999-08-19, 03:37:00,VALID,0,VALID,97.8462,VALID,0,VALID,19.4412,VALID,196,VALID,0,
1999-08-19, 03:38:00,VALID,0,VALID,97.9695,VALID,0.0169808,VALID,19.4604,VALID,196,VALID,0,
1999-08-19, 03:39:00,VALID,0,VALID,97.6351,VALID,0,VALID,19.4154,VALID,196,VALID,0,
1999-08-19, 03:40:00,VALID,0,VALID,97.2574,VALID,0.0339617,VALID,19.3694,VALID,195,VALID,0,
1999-08-19, 03:41:00,VALID,0,VALID,96.9649,VALID,0.0339617,VALID,19.3339,VALID,188,VALID,0,
1999-08-19, 03:42:00,VALID,0,VALID,96.7907,VALID,0.0169808,VALID,19.3279,VALID,166,VALID,0.122944,
1999-08-19, 03:43:00,VALID,0,VALID,96.82,VALID,0,VALID,19.2988,VALID,155,VALID,0.413446,
1999-08-19, 03:44:00,VALID,0,VALID,96.8975,VALID,0,VALID,19.257,VALID,145,VALID,0.450802,
1999-08-19, 03:45:00,VALID,0,VALID,97.1862,VALID,0,VALID,19.2081,VALID,131,VALID,0.461523,
1999-08-19, 03:46:00,VALID,0,VALID,97.4876,VALID,-0.0849042,VALID,19.1805,VALID,131,VALID,0.360156,
1999-08-19, 03:47:00,VALID,0,VALID,97.5791,VALID,-0.0849042,VALID,19.1417,VALID,131,VALID,0.378084,
1999-08-19, 03:48:00,VALID,0,VALID,97.6618,VALID,-0.0339617,VALID,19.0997,VALID,131,VALID,0.462838,
1999-08-19, 03:49:01,VALID,0,VALID,97.864,VALID,-0.0509425,VALID,19.0801,VALID,131,VALID,0.537623,
1999-08-19, 03:50:00,VALID,0,VALID,98.1335,VALID,-0.0849042,VALID,19.093,VALID,131,VALID,0.553865,
1999-08-19, 03:51:00,VALID,0,VALID,98.3065,VALID,-0.0849042,VALID,19.1059,VALID,131,VALID,0.623476,
1999-08-19, 03:52:00,VALID,0,VALID,98.3561,VALID,-0.0339617,VALID,19.1089,VALID,131,VALID,0.623355,
1999-08-19, 03:53:00,VALID,0,VALID,98.4311,VALID,-0.0509425,VALID,19.1126,VALID,131,VALID,0.545272,
1999-08-19, 03:54:00,VALID,0,VALID,98.3917,VALID,-0.0509425,VALID,19.0898,VALID,130,VALID,0.583676,
1999-08-19, 03:55:00,VALID,0,VALID,98.3383,VALID,-0.0849042,VALID,19.051,VALID,130,VALID,0.597656,
1999-08-19, 03:56:00,VALID,0,VALID,98.5595,VALID,-0.0509425,VALID,19.1029,VALID,127,VALID,0.688556,
1999-08-19, 03:57:00,VALID,0,VALID,98.763,VALID,-0.0679233,VALID,19.17,VALID,126,VALID,0.499609,
1999-08-19, 03:58:00,VALID,0,VALID,98.7808,VALID,-0.0849042,VALID,19.2001,VALID,126,VALID,0.329297,
1999-08-19, 03:59:00,VALID,0,VALID,98.8227,VALID,-0.0849042,VALID,19.2262,VALID,126,VALID,0.244243,
1999-08-19, 04:00:00,VALID,0,VALID,98.9105,VALID,-0.0849042,VALID,19.2645,VALID,126,VALID,0.061022,
1999-08-19, 04:01:00,VALID,0,VALID,98.9652,VALID,-0.0849042,VALID,19.2928,VALID,126,VALID,0,
1999-08-19, 04:02:00,VALID,0,VALID,99.016,VALID,-0.0339617,VALID,19.3552,VALID,125,VALID,0.00616776,
1999-08-19, 04:03:00,VALID,0,VALID,99.0796,VALID,-0.0679233,VALID,19.4223,VALID,113,VALID,0.325648,
1999-08-19, 04:04:00,VALID,0,VALID,99.0478,VALID,-0.0509425,VALID,19.4288,VALID,121,VALID,0.213199,
1999-08-19, 04:05:00,VALID,0,VALID,99.0478,VALID,-0.0849042,VALID,19.4385,VALID,136,VALID,0.248397,
1999-08-19, 04:06:00,VALID,0,VALID,99.0364,VALID,-0.0339617,VALID,19.4251,VALID,136,VALID,0.270559,
1999-08-19, 04:07:00,VALID,0,VALID,98.9792,VALID,-0.0679233,VALID,19.4163,VALID,134,VALID,0.476151,
1999-08-19, 04:08:00,VALID,0,VALID,98.9512,VALID,-0.0339617,VALID,19.3701,VALID,127,VALID,0.49261,